Date,TemperatureHighF,TemperatureAvgF,TemperatureLowF,DewpointHighF,DewpointAvgF,DewpointLowF,HumidityHigh,HumidityAvg,HumidityLow,PressureMaxIn,PressureMinIn,WindSpeedMaxMPH,WindSpeedAvgMPH,GustSpeedMaxMPH,PrecipitationSumIn
2014-1-1,42.0,33.1,21.0,27.0,20.9,18.0,89,63,37,0.00,40.00,13,6,24,0.00
2014-1-2,49.0,43.5,36.0,27.0,19.6,15.0,50,38,32,0.00,40.00,16,9,39,0.00
2014-1-3,51.0,37.0,22.0,33.0,23.5,12.0,92,62,30,0.00,40.00,23,11,43,0.00
2014-1-4,24.0,14.2,5.0,22.0,7.2,-99.9,90,76,66,0.00,40.00,12,7,22,0.00
2014-1-5,10.0,3.0,-7.0,-2.0,-9.8,-17.0,72,55,42,0.00,40.00,12,7,19,0.00
2014-1-6,37.0,26.4,10.0,19.0,8.2,-3.0,56,46,35,0.00,40.00,11,7,17,0.00
2014-1-7,41.0,36.5,33.0,24.0,18.4,15.0,63,48,35,0.00,40.00,11,7,17,0.00
2014-1-8,44.0,40.5,36.0,27.0,25.3,23.0,63,54,47,0.00,40.00,14,8,26,0.00
2014-1-9,43.0,38.4,34.0,26.0,20.4,13.0,55,48,42,0.00,40.00,16,10,31,0.00
2014-1-10,42.0,38.8,34.0,25.0,20.6,14.0,53,48,43,0.00,40.00,18,11,28,0.00
2014-1-11,54.0,43.8,38.0,34.0,24.3,-99.9,70,47,43,0.00,40.00,21,12,61,0.04
2014-1-12,41.0,37.7,35.0,27.0,19.6,14.0,65,48,36,0.00,40.00,21,14,35,0.04
2014-1-13,49.0,41.5,29.0,27.0,25.1,22.0,94,55,38,0.00,40.00,25,12,39,0.00
2014-1-14,43.0,32.9,21.0,31.0,25.6,18.0,94,76,49,0.00,40.00,11,6,21,0.00
2014-1-15,49.0,44.2,30.0,25.0,20.9,18.0,76,40,32,0.00,40.00,15,9,33,0.00
2014-1-16,49.0,33.5,20.0,26.0,20.3,16.0,84,60,39,0.00,40.00,10,5,18,0.00
2014-1-17,55.0,41.5,27.0,23.0,18.8,13.0,75,42,25,0.00,40.00,9,5,14,0.00
2014-1-18,54.0,40.5,24.0,24.0,19.1,-99.9,85,48,27,0.00,40.00,9,7,24,0.00
2014-1-19,53.0,46.6,30.0,20.0,15.0,10.0,62,29,19,0.00,40.00,16,8,25,0.00
2014-1-20,49.0,35.3,19.0,21.0,16.4,12.0,83,51,26,0.00,40.00,9,6,19,0.00
2014-1-21,56.0,43.0,35.0,24.0,16.6,11.0,55,35,26,0.00,40.00,13,6,17,0.00
2014-1-22,35.0,30.3,21.0,30.0,24.5,17.0,93,79,55,0.00,40.00,10,6,17,0.00
2014-1-23,42.0,30.9,20.0,25.0,20.9,16.0,91,68,48,0.00,40.00,10,6,19,0.00
2014-1-24,53.0,41.5,35.0,28.0,24.0,22.0,63,51,33,0.00,40.00,8,5,14,0.00
2014-1-25,56.0,42.5,33.0,27.0,22.6,-99.9,70,49,28,0.00,40.00,9,5,23,0.00
2014-1-26,36.0,26.1,18.0,31.0,16.4,3.0,84,67,42,0.00,40.00,15,5,25,0.00
2014-1-27,30.0,14.3,4.0,11.0,3.9,-1.0,81,65,39,0.00,40.00,8,4,12,0.00
2014-1-28,42.0,27.9,7.0,21.0,4.8,-2.0,74,42,16,0.00,40.00,10,7,19,0.00
2014-1-29,44.0,37.7,22.0,33.0,26.2,18.0,89,64,49,0.00,40.00,14,9,22,0.00
2014-1-30,22.0,11.1,7.0,18.0,3.4,-1.0,86,71,56,0.00,40.00,11,5,15,0.00
2014-1-31,23.0,16.3,8.0,13.0,7.3,2.0,83,68,47,0.00,40.00,17,7,23,0.00
2014-2-1,26.0,15.1,-3.0,9.0,2.6,-99.9,83,60,42,0.00,40.00,8,5,16,0.00
2014-2-2,21.0,16.3,9.0,13.0,6.7,3.0,80,66,53,0.00,40.00,10,6,14,0.00
2014-2-3,14.0,8.6,3.0,9.0,1.2,-4.0,82,71,62,0.00,40.00,8,6,14,0.00
2014-2-4,3.0,-4.5,-10.0,-4.0,-13.9,-19.0,73,63,54,0.00,40.00,12,6,19,0.00
2014-2-5,-1.0,-14.0,-24.0,-14.0,-24.4,-33.0,65,58,49,0.00,40.00,8,4,12,0.00
2014-2-6,3.0,-13.2,-29.0,-17.0,-26.5,-39.0,62,51,37,0.00,40.00,11,8,18,0.00
2014-2-7,18.0,2.0,-6.0,2.0,-10.5,-21.0,78,55,46,0.00,40.00,12,8,21,0.00
2014-2-8,10.0,3.3,-7.0,0.0,-4.9,-13.0,76,68,56,0.00,40.00,9,4,11,0.00
2014-2-9,17.0,4.5,-4.0,7.0,-4.1,-11.0,77,68,53,0.00,40.00,12,4,20,0.00
2014-2-10,40.0,27.0,9.0,26.0,14.2,3.0,77,59,49,0.00,40.00,12,8,26,0.00
2014-2-11,43.0,38.5,33.0,35.0,21.3,10.0,88,51,32,0.00,40.00,16,10,29,0.00
2014-2-12,49.0,41.9,35.0,34.0,22.2,9.0,63,46,32,0.00,40.00,27,13,41,0.00
2014-2-13,45.0,40.7,35.0,34.0,25.6,18.0,78,55,41,0.00,40.00,19,12,42,0.00
2014-2-14,45.0,38.9,31.0,29.0,20.9,11.0,61,49,33,0.00,40.00,17,10,31,0.00
2014-2-15,49.0,43.1,37.0,33.0,22.4,-99.9,69,46,29,0.00,40.00,14,6,21,0.00
2014-2-16,49.0,41.7,36.0,31.0,20.7,11.0,66,43,30,0.00,40.00,25,14,39,0.00
2014-2-17,51.0,41.7,35.0,32.0,17.2,9.0,69,38,26,0.00,40.00,23,14,38,0.00
2014-2-18,45.0,39.2,32.0,28.0,19.8,17.0,69,46,33,0.00,40.00,16,10,31,0.00
2014-2-19,44.0,35.8,27.0,33.0,13.1,5.0,82,40,26,0.00,40.00,21,12,37,0.00
2014-2-20,37.0,28.9,20.0,25.0,15.3,7.0,79,57,41,0.00,40.00,14,6,24,0.00
2014-2-21,35.0,29.1,18.0,25.0,16.4,9.0,86,61,33,0.00,40.00,11,6,21,0.00
2014-2-22,21.0,16.9,13.0,14.0,6.8,-99.9,85,67,51,0.00,40.00,14,7,19,0.00
2014-2-23,15.0,7.8,4.0,10.0,0.8,-3.0,80,73,61,0.00,40.00,10,7,16,0.00
2014-2-24,13.0,6.2,1.0,2.0,-2.3,-6.0,79,68,52,0.00,40.00,8,5,12,0.00
2014-2-25,20.0,11.6,-3.0,3.0,-2.1,-10.0,79,56,30,0.00,40.00,11,6,16,0.00
2014-2-26,29.0,17.5,10.0,9.0,2.2,-4.0,58,51,42,0.00,40.00,12,10,21,0.00
2014-2-27,36.0,26.1,19.0,27.0,13.8,5.0,85,59,49,0.00,40.00,13,9,20,0.00
2014-2-28,19.0,5.7,-4.0,14.0,-3.1,-13.0,84,67,52,0.00,40.00,12,9,20,0.00
2014-3-1,-4.0,-11.2,-15.0,-13.0,-23.1,-99.9,68,56,48,0.00,40.00,14,8,20,0.00
2014-3-2,0.0,-6.2,-13.0,-13.0,-17.6,-25.0,65,57,49,0.00,40.00,10,5,15,0.00
2014-3-3,20.0,7.8,-4.0,9.0,-1.2,-13.0,77,66,56,0.00,40.00,16,8,23,0.00
2014-3-4,50.0,44.0,38.0,30.0,25.7,22.0,70,49,37,0.00,40.00,17,9,30,0.00
2014-3-5,53.0,47.7,42.0,33.0,28.3,25.0,57,47,33,0.00,40.00,17,9,30,0.00
2014-3-6,53.0,40.2,18.0,38.0,27.1,13.0,90,62,37,0.00,40.00,19,10,25,0.00
2014-3-7,53.0,35.7,17.0,29.0,22.2,12.0,80,60,39,0.00,40.00,16,8,25,0.00
2014-3-8,56.0,46.3,33.0,27.0,20.9,-99.9,69,40,22,0.00,40.00,17,9,29,0.00
2014-3-9,62.0,56.4,49.0,36.0,30.6,16.0,55,38,22,0.00,40.00,18,12,32,0.00
2014-3-10,49.0,40.6,33.0,38.0,35.2,31.0,95,82,55,0.00,40.00,9,6,19,0.34
2014-3-11,48.0,37.3,29.0,34.0,28.1,20.0,96,73,40,0.00,40.00,12,5,21,0.45
2014-3-12,55.0,42.6,29.0,25.0,22.0,19.0,76,46,29,0.00,40.00,9,6,19,0.08
2014-3-13,56.0,47.9,42.0,23.0,19.4,17.0,46,32,23,0.00,40.00,13,8,26,0.00
2014-3-14,51.0,45.2,38.0,30.0,22.3,13.0,59,41,30,0.00,40.00,19,10,28,0.00
2014-3-15,49.0,43.1,36.0,28.0,20.8,-99.9,62,43,28,0.00,40.00,18,9,30,0.00
2014-3-16,62.0,53.0,46.0,22.0,15.3,-99.9,35,23,14,0.00,40.00,26,14,40,0.00
2014-3-17,50.0,39.9,32.0,32.0,25.6,12.0,97,63,21,0.00,40.00,13,7,24,0.23
2014-3-18,41.0,33.5,24.0,29.0,21.9,16.0,98,66,39,0.00,40.00,14,8,21,0.18
2014-3-19,49.0,36.3,28.0,25.0,16.5,14.0,68,46,26,0.00,40.00,17,7,32,0.01
2014-3-20,42.0,37.3,26.0,28.0,17.0,9.0,74,46,25,0.00,40.00,18,12,34,0.00
2014-3-21,26.0,20.1,16.0,19.0,12.4,-99.9,83,74,65,0.00,40.00,12,8,20,0.01
2014-3-22,31.0,19.9,10.0,16.0,10.3,-99.9,82,68,53,0.00,40.00,14,9,18,0.01
2014-3-23,32.0,24.0,18.0,22.0,17.3,15.0,87,76,61,0.00,40.00,12,7,20,0.02
2014-3-24,25.0,23.3,21.0,15.0,14.2,13.0,73,67,64,0.00,40.00,10,8,16,0.01
2014-3-25,55.0,32.6,19.0,27.0,19.4,12.0,84,61,28,0.00,40.00,12,7,21,0.00
2014-3-26,51.0,36.5,27.0,32.0,26.9,22.0,90,70,37,0.00,40.00,18,8,24,0.00
2014-3-27,33.0,29.8,25.0,30.0,26.3,22.0,93,87,75,0.00,40.00,11,8,17,0.05
2014-3-28,54.0,37.9,21.0,34.0,22.9,17.0,92,61,23,0.00,40.00,14,7,24,0.02
2014-3-29,50.0,46.0,43.0,33.0,24.9,-99.9,62,45,38,0.00,40.00,15,9,26,0.04
2014-3-30,50.0,37.6,30.0,31.0,26.5,22.0,90,67,38,0.00,40.00,18,7,27,0.04
2014-3-31,48.0,35.8,24.0,33.0,26.1,21.0,96,71,35,0.00,40.00,9,5,15,0.05
2014-4-1,37.0,32.6,29.0,29.0,26.4,-99.9,91,80,67,0.00,40.00,11,7,18,0.05
2014-4-2,50.0,38.3,32.0,32.0,28.0,23.0,88,68,42,0.00,40.00,9,6,22,0.00
2014-4-3,53.0,38.2,24.0,32.0,23.1,15.0,95,63,23,0.00,40.00,9,4,17,0.00
2014-4-4,56.0,45.2,33.0,27.0,21.8,17.0,62,41,23,0.00,40.00,16,8,27,0.00
2014-4-5,53.0,44.4,38.0,28.0,20.7,-99.9,62,42,25,0.00,40.00,22,12,32,0.00
2014-4-6,58.0,48.3,34.0,31.0,25.3,18.0,57,42,25,0.00,40.00,15,9,35,0.00
2014-4-7,65.0,54.2,28.0,33.0,29.0,19.0,77,40,26,0.00,40.00,16,10,25,0.00
2014-4-8,70.0,59.0,45.0,34.0,29.8,25.0,57,35,21,0.00,40.00,19,11,35,0.00
2014-4-9,61.0,55.6,47.0,37.0,29.6,17.0,59,38,19,0.00,40.00,21,12,36,0.00
2014-4-10,60.0,50.7,42.0,23.0,18.8,16.0,41,29,19,0.00,40.00,16,10,28,0.00
2014-4-11,62.0,53.4,46.0,28.0,22.6,16.0,47,30,23,0.00,40.00,18,10,39,0.00
2014-4-12,47.0,33.0,25.0,34.0,26.4,-99.9,93,80,47,0.00,40.00,11,7,22,0.17
2014-4-13,43.0,31.6,23.0,21.0,16.2,6.0,89,59,21,0.00,40.00,8,4,22,0.03
2014-4-14,59.0,39.3,25.0,17.0,13.6,8.0,66,38,17,0.00,40.00,14,7,22,0.03
2014-4-15,54.0,48.6,38.0,35.0,22.8,7.0,85,41,15,0.00,40.00,17,9,27,0.03
2014-4-16,48.0,38.4,27.0,36.0,30.6,21.0,96,75,48,0.00,40.00,16,5,26,0.04
2014-4-17,61.0,49.6,34.0,38.0,30.3,26.0,83,49,28,0.00,40.00,10,6,18,0.02
2014-4-18,52.0,47.7,43.0,42.0,26.3,13.0,82,47,24,0.00,40.00,19,10,42,0.04
2014-4-19,68.0,50.0,34.0,24.0,14.0,-99.9,46,27,10,0.00,40.00,13,7,26,0.01
2014-4-20,59.0,51.0,42.0,30.0,19.4,11.0,49,30,17,0.00,40.00,20,11,32,0.00
2014-4-21,71.0,53.5,32.0,28.0,21.0,16.0,66,32,12,0.00,40.00,9,5,19,0.00
2014-4-22,72.0,48.4,36.0,44.0,32.6,22.0,89,58,23,0.00,40.00,15,4,25,0.24
2014-4-23,51.0,43.9,40.0,41.0,25.3,20.0,89,49,31,0.00,40.00,20,13,37,0.22
2014-4-24,58.0,46.6,39.0,35.0,31.4,29.0,71,57,40,0.00,40.00,18,10,26,0.00
2014-4-25,60.0,50.1,41.0,41.0,30.0,26.0,85,47,32,0.00,40.00,12,7,21,0.09
2014-4-26,45.0,39.7,35.0,41.0,36.2,33.0,94,87,75,0.00,40.00,9,6,16,0.83
2014-4-28,52.0,44.9,36.0,24.0,16.8,13.0,58,34,23,0.00,40.00,11,7,20,0.00
2014-4-29,60.0,43.7,28.0,29.0,21.4,15.0,74,46,20,0.00,40.00,10,6,22,0.00
2014-4-30,68.0,48.4,27.0,28.0,24.1,20.0,76,44,16,0.00,40.00,8,5,13,0.00
2014-5-1,78.0,57.0,35.0,36.0,31.1,26.0,70,42,20,0.00,40.00,9,6,16,0.00
2014-5-2,68.0,56.0,46.0,45.0,40.0,33.0,81,56,39,0.00,40.00,13,8,26,0.00
2014-5-3,46.0,40.8,38.0,41.0,35.9,-99.9,93,85,71,0.00,40.00,12,9,19,0.00
2014-5-4,63.0,49.6,39.0,44.0,36.0,27.0,96,66,28,0.00,40.00,14,6,25,0.25
2014-5-5,65.0,49.6,36.0,38.0,34.0,30.0,86,58,30,0.00,40.00,11,5,22,0.03
2014-5-6,54.0,40.9,34.0,37.0,30.9,27.0,82,68,42,0.00,40.00,11,6,21,0.00
2014-5-7,34.0,34.0,34.0,29.0,29.0,29.0,82,82,82,0.00,40.00,4,4,10,0.00
2014-5-13,68.0,56.5,43.0,31.0,26.9,23.0,63,35,19,0.00,40.00,6,4,13,0.00
2014-5-14,70.0,53.1,33.0,37.0,31.3,27.0,85,48,24,0.00,40.00,8,5,17,0.00
2014-5-15,76.0,58.3,39.0,45.0,39.1,34.0,85,53,25,0.00,40.00,12,6,31,0.00
2014-5-16,55.0,49.2,42.0,45.0,42.0,39.0,97,77,65,0.00,40.00,11,6,19,0.03
2014-5-17,75.0,55.4,39.0,49.0,41.2,-99.9,99,67,26,0.00,40.00,10,5,18,0.02
2014-5-18,62.0,51.3,39.0,48.0,41.2,35.0,96,70,39,0.00,40.00,9,5,24,0.02
2014-5-19,67.0,54.3,45.0,42.0,32.5,-99.9,74,50,26,0.00,40.00,15,8,24,0.01
2014-5-20,72.0,54.1,32.0,40.0,34.6,29.0,93,54,25,0.00,40.00,8,5,15,0.00
2014-5-21,80.0,60.7,39.0,44.0,34.1,22.0,89,45,13,0.00,40.00,9,5,14,0.00
2014-5-22,85.0,63.6,41.0,43.0,37.1,34.0,80,43,18,0.00,40.00,10,5,16,0.00
2014-5-23,89.0,66.5,42.0,44.0,37.1,31.0,75,41,14,0.00,40.00,12,6,22,0.00
2014-5-24,78.0,61.9,46.0,53.0,42.4,-99.9,91,52,35,0.00,40.00,11,5,20,0.03
2014-5-25,79.0,63.3,46.0,51.0,43.7,34.0,98,57,20,0.00,40.00,8,5,15,0.03
2014-5-26,78.0,65.9,54.0,44.0,39.4,36.0,56,39,26,0.00,40.00,13,8,25,0.01
2014-5-27,76.0,61.4,40.0,48.0,38.2,33.0,83,46,25,0.00,40.00,10,5,16,0.00
2014-5-28,74.0,59.4,47.0,55.0,48.5,43.0,89,69,44,0.00,40.00,12,6,24,0.09
2014-5-29,67.0,57.9,43.0,45.0,28.0,23.0,62,34,19,0.00,40.00,17,10,30,0.01
2014-5-30,78.0,57.9,33.0,39.0,31.5,25.0,78,42,18,0.00,40.00,11,5,17,0.00
2014-5-31,69.0,57.3,46.0,50.0,40.8,-99.9,90,57,37,0.00,40.00,12,6,39,0.23
2014-6-1,69.0,53.2,43.0,53.0,45.2,42.0,97,77,44,0.00,40.00,9,5,24,0.39
2014-6-2,80.0,72.7,59.0,48.0,39.4,33.0,59,32,20,0.00,40.00,14,6,19,0.12
2014-6-3,76.0,60.5,46.0,52.0,42.9,32.0,88,57,33,0.00,40.00,13,6,31,0.00
2014-6-4,76.0,61.5,49.0,51.0,39.6,25.0,72,48,16,0.00,40.00,10,5,19,0.00
2014-6-5,59.0,54.3,50.0,43.0,38.7,36.0,69,56,43,0.00,40.00,16,8,25,0.00
2014-6-6,67.0,56.0,46.0,40.0,36.1,33.0,70,49,30,0.00,40.00,12,6,20,0.00
2014-6-7,71.0,58.7,44.0,44.0,32.0,-99.9,76,42,16,0.00,40.00,9,6,18,0.00
2014-6-8,80.0,62.2,46.0,35.0,30.2,25.0,54,33,16,0.00,40.00,9,5,16,0.00
2014-6-9,77.0,65.0,48.0,39.0,34.3,29.0,55,34,17,0.00,40.00,19,10,36,0.00
2014-6-10,75.0,63.5,42.0,44.0,34.9,23.0,79,40,15,0.00,40.00,13,7,31,0.00
2014-6-11,64.0,53.3,42.0,44.0,41.0,37.0,91,65,41,0.00,40.00,12,6,31,0.00
2014-6-12,76.0,57.6,38.0,49.0,42.1,35.0,92,60,34,0.00,40.00,11,6,24,0.00
2014-6-13,70.0,60.3,52.0,54.0,42.1,28.0,93,57,26,0.00,40.00,23,9,37,0.36
2014-6-14,57.0,52.1,46.0,49.0,39.8,-99.9,93,66,44,0.00,40.00,12,6,20,0.04
2014-6-15,72.0,56.7,40.0,47.0,40.1,33.0,95,60,25,0.00,40.00,8,5,17,0.02
2014-6-16,65.0,54.7,48.0,51.0,46.4,40.0,97,76,42,0.00,40.00,8,4,17,0.60
2014-6-17,60.0,52.1,46.0,47.0,40.9,32.0,97,70,39,0.00,40.00,14,7,23,0.53
2014-6-18,52.0,47.3,44.0,44.0,37.7,33.0,85,70,49,0.00,40.00,11,6,21,0.67
2014-6-19,69.0,58.4,47.0,49.0,42.6,35.0,87,60,32,0.00,40.00,13,7,25,0.51
2014-6-20,81.0,66.6,50.0,47.0,43.1,38.0,68,45,26,0.00,40.00,11,6,34,0.04
2014-6-21,78.0,65.5,52.0,48.0,37.7,-99.9,80,41,17,0.00,40.00,13,8,23,0.00
2014-6-22,74.0,61.7,47.0,49.0,44.5,38.0,86,55,37,0.00,40.00,13,7,21,0.00
2014-6-23,77.0,61.1,50.0,52.0,48.5,42.0,93,67,33,0.00,40.00,9,5,22,0.00
2014-6-24,80.0,64.1,47.0,55.0,48.7,44.0,91,62,31,0.00,40.00,13,5,25,0.05
2014-6-25,82.0,68.2,57.0,54.0,44.8,29.0,79,49,15,0.00,40.00,11,7,20,0.05
2014-6-26,67.0,60.9,56.0,60.0,53.6,48.0,95,78,53,0.00,40.00,10,5,15,0.19
2014-6-27,74.0,63.3,53.0,55.0,49.6,41.0,97,65,37,0.00,40.00,11,5,22,0.09
2014-6-28,69.0,61.3,55.0,47.0,40.3,-99.9,67,48,34,0.00,40.00,20,11,30,0.01
2014-6-29,72.0,63.1,53.0,42.0,37.3,34.0,59,40,27,0.00,40.00,18,12,38,0.00
2014-6-30,75.0,62.6,47.0,45.0,40.3,36.0,72,46,29,0.00,40.00,12,5,18,0.00
2014-7-1,78.0,62.1,47.0,51.0,46.8,43.0,92,62,34,0.00,40.00,12,6,19,0.00
2014-7-2,89.0,72.4,49.0,52.0,48.0,44.0,87,47,26,0.00,40.00,11,5,19,0.00
2014-7-3,95.0,80.0,61.0,57.0,49.6,40.0,75,39,18,0.00,40.00,9,6,16,0.00
2014-7-4,90.0,72.8,60.0,52.0,48.8,45.0,68,45,23,0.00,40.00,8,4,29,0.00
2014-7-5,87.0,72.6,58.0,53.0,40.9,-99.9,74,39,16,0.00,40.00,17,8,31,0.00
2014-7-6,92.0,74.9,53.0,47.0,39.3,34.0,62,32,15,0.00,40.00,18,7,29,0.00
2014-7-7,79.0,69.0,59.0,56.0,48.3,40.0,75,50,33,0.00,40.00,12,7,24,0.00
2014-7-8,88.0,72.2,52.0,52.0,47.6,44.0,79,45,25,0.00,40.00,15,7,22,0.00
2014-7-9,92.0,77.6,55.0,51.0,44.1,33.0,71,34,13,0.00,40.00,13,6,24,0.00
2014-7-10,94.0,83.3,66.0,55.0,39.2,30.0,56,25,11,0.00,40.00,15,9,29,0.00
2014-7-11,78.0,68.3,61.0,54.0,50.0,42.0,69,53,35,0.00,40.00,12,7,22,0.00
2014-7-12,90.0,73.4,54.0,57.0,46.7,36.0,85,46,17,0.00,40.00,11,6,19,0.00
2014-7-13,93.0,76.2,56.0,48.0,42.5,35.0,55,33,17,0.00,40.00,13,8,21,0.00
2014-7-14,87.0,74.1,59.0,54.0,48.0,42.0,63,41,27,0.00,40.00,14,8,25,0.00
2014-7-15,74.0,65.4,56.0,61.0,57.5,49.0,97,77,49,0.00,40.00,9,5,22,0.35
2014-7-16,90.0,69.7,55.0,60.0,54.4,46.0,100,67,23,0.00,40.00,7,5,11,0.14
2014-7-17,93.0,75.9,56.0,59.0,48.2,31.0,87,47,14,0.00,40.00,17,6,28,0.01
2014-7-18,82.0,68.6,52.0,52.0,43.4,34.0,86,47,21,0.00,40.00,11,7,23,0.00
2014-7-19,83.0,74.4,67.0,47.0,41.4,36.0,36,30,26,0.00,40.00,18,10,32,0.00
2014-7-20,90.0,77.1,68.0,49.0,45.2,39.0,46,33,19,0.00,40.00,16,12,30,0.00
2014-7-21,85.0,70.2,56.0,57.0,46.3,26.0,82,48,15,0.00,40.00,16,6,29,0.01
2014-7-22,90.0,71.0,59.0,61.0,50.5,41.0,81,51,24,0.00,40.00,9,4,20,0.07
2014-7-23,94.0,74.4,58.0,63.0,53.7,44.0,95,58,19,0.00,40.00,10,5,30,0.04
2014-7-24,75.0,65.3,54.0,57.0,42.6,28.0,90,51,20,0.00,40.00,21,10,39,0.03
2014-7-25,78.0,68.1,58.0,37.0,34.8,32.0,44,30,21,0.00,40.00,20,13,31,0.00
2014-7-26,86.0,68.6,47.0,43.0,36.1,31.0,68,34,16,0.00,40.00,12,6,17,0.00
2014-7-27,92.0,72.2,46.0,44.0,38.4,31.0,71,35,14,0.00,40.00,13,6,20,0.00
2014-7-28,92.0,76.3,55.0,47.0,41.0,33.0,54,30,19,0.00,40.00,13,7,21,0.00
2014-7-29,93.0,75.7,62.0,48.0,43.5,35.0,55,35,13,0.00,40.00,12,6,21,0.00
2014-7-30,95.0,76.3,55.0,52.0,43.7,39.0,67,35,16,0.00,40.00,12,5,31,0.01
2014-7-31,94.0,72.7,53.0,51.0,40.9,31.0,73,40,12,0.00,40.00,9,5,21,0.01
2014-8-1,93.0,75.6,53.0,50.0,41.7,37.0,61,34,16,0.00,40.00,14,7,22,0.00
2014-8-2,89.0,73.3,58.0,55.0,49.7,39.0,78,47,20,0.00,40.00,11,5,22,0.00
2014-8-3,92.0,75.5,61.0,52.0,47.4,43.0,61,40,20,0.00,40.00,11,5,19,0.00
2014-8-4,82.0,69.7,56.0,59.0,52.5,47.0,80,56,37,0.00,40.00,12,5,19,0.08
2014-8-5,89.0,71.9,57.0,59.0,53.8,45.0,96,60,25,0.00,40.00,8,4,15,0.18
2014-8-6,94.0,72.0,55.0,54.0,46.6,38.0,72,47,15,0.00,40.00,9,6,17,0.00
2014-8-7,95.0,86.0,75.0,51.0,41.0,30.0,43,22,14,0.00,40.00,11,6,18,0.00
2014-8-8,88.0,72.0,56.0,50.0,43.9,37.0,61,39,20,0.00,40.00,16,6,27,0.00
2014-8-9,85.0,70.7,57.0,53.0,46.8,38.0,78,46,24,0.00,40.00,11,6,17,0.00
2014-8-10,93.0,76.2,56.0,48.0,39.7,33.0,63,31,12,0.00,40.00,12,6,19,0.00
2014-8-11,93.0,75.6,53.0,47.0,41.6,35.0,65,32,17,0.00,40.00,13,7,21,0.00
2014-8-12,96.0,77.4,57.0,47.0,43.0,38.0,53,32,19,0.00,40.00,8,5,25,0.00
2014-8-13,93.0,78.6,67.0,53.0,47.9,37.0,56,37,15,0.00,40.00,13,6,26,0.00
2014-8-14,89.0,74.8,64.0,61.0,53.6,44.0,79,51,23,0.00,40.00,10,6,16,0.00
2014-8-15,80.0,70.0,62.0,60.0,55.4,48.0,85,61,42,0.00,40.00,9,6,16,0.25
2014-8-16,79.0,66.8,53.0,52.0,46.5,42.0,82,51,28,0.00,40.00,19,9,33,0.03
2014-8-17,85.0,71.3,60.0,53.0,48.0,44.0,69,46,24,0.00,40.00,9,6,18,0.00
2014-8-18,89.0,72.2,53.0,55.0,45.5,37.0,84,47,16,0.00,40.00,13,6,20,0.00
2014-8-19,89.0,72.8,54.0,50.0,41.0,31.0,68,37,14,0.00,40.00,14,7,27,0.00
2014-8-20,82.0,68.4,55.0,51.0,44.6,40.0,74,44,27,0.00,40.00,10,5,24,0.00
2014-8-21,64.0,58.2,54.0,55.0,51.2,47.0,91,78,59,0.00,40.00,12,5,17,0.05
2014-8-22,62.0,54.9,50.0,54.0,50.9,47.0,97,87,65,0.00,40.00,12,6,19,0.55
2014-8-23,51.0,49.0,47.0,48.0,46.2,45.0,96,90,86,0.00,40.00,11,7,22,2.19
2014-8-24,58.0,50.7,47.0,50.0,45.7,39.0,98,84,59,0.00,40.00,8,4,13,0.63
2014-8-25,72.0,57.1,45.0,48.0,44.4,41.0,96,67,33,0.00,40.00,6,4,12,0.01
2014-8-26,81.0,61.0,44.0,54.0,43.4,33.0,96,61,18,0.00,40.00,10,5,21,0.00
2014-8-27,87.0,67.5,48.0,51.0,45.6,42.0,82,51,23,0.00,40.00,12,5,20,0.00
2014-8-28,87.0,70.9,55.0,52.0,44.9,32.0,78,46,16,0.00,40.00,19,9,33,0.00
2014-8-29,85.0,67.4,47.0,52.0,44.9,37.0,96,52,20,0.00,40.00,9,5,17,0.00
2014-8-30,76.0,65.8,56.0,48.0,41.9,35.0,68,42,26,0.00,40.00,13,7,25,0.00
2014-8-31,68.0,61.0,52.0,45.0,40.0,35.0,67,47,34,0.00,40.00,19,7,30,0.00
2014-9-1,71.0,60.8,48.0,45.0,37.6,34.0,74,45,27,0.00,40.00,14,8,25,0.00
2014-9-2,80.0,67.3,53.0,42.0,36.9,30.0,54,35,20,0.00,40.00,12,9,22,0.00
2014-9-3,67.0,57.8,49.0,45.0,35.9,28.0,73,47,25,0.00,40.00,19,8,30,0.00
2014-9-4,71.0,56.3,44.0,43.0,37.5,32.0,83,54,26,0.00,40.00,7,4,16,0.00
2014-9-5,75.0,54.7,35.0,41.0,35.3,31.0,90,54,20,0.00,40.00,8,4,12,0.00
2014-9-6,83.0,59.2,39.0,40.0,33.4,27.0,76,43,14,0.00,40.00,8,5,12,0.00
2014-9-7,83.0,68.3,42.0,41.0,31.2,23.0,71,30,11,0.00,40.00,16,7,22,0.00
2014-9-8,83.0,56.6,40.0,46.0,36.6,22.0,73,52,11,0.00,40.00,16,6,27,0.00
2014-9-9,46.0,41.1,36.0,37.0,33.4,31.0,91,75,60,0.00,40.00,9,7,15,0.01
2014-9-10,42.0,38.9,35.0,38.0,35.5,32.0,95,87,79,0.00,40.00,8,5,15,0.24
2014-9-11,49.0,38.3,32.0,36.0,31.9,29.0,96,80,50,0.00,40.00,7,5,13,0.12
2014-9-12,69.0,50.0,32.0,34.0,28.0,21.0,93,48,24,0.00,40.00,11,6,20,0.01
2014-9-13,57.0,46.2,38.0,38.0,33.8,25.0,82,62,46,0.00,40.00,11,4,16,0.00
2014-9-14,68.0,50.5,33.0,41.0,35.5,31.0,93,62,31,0.00,40.00,11,6,18,0.00
2014-9-15,83.0,56.9,35.0,43.0,35.6,26.0,92,53,13,0.00,40.00,9,5,15,0.00
2014-9-16,78.0,61.3,42.0,49.0,40.6,34.0,81,51,25,0.00,40.00,8,4,12,0.00
2014-9-17,83.0,68.2,50.0,53.0,47.7,44.0,90,52,29,0.00,40.00,8,5,15,0.00
2014-9-18,80.0,71.4,50.0,50.0,46.9,43.0,80,43,32,0.00,40.00,14,8,21,0.00
2014-9-19,75.0,68.2,63.0,46.0,42.8,40.0,50,40,31,0.00,40.00,18,10,29,0.00
2014-9-20,76.0,61.8,45.0,47.0,42.0,38.0,85,50,31,0.00,40.00,11,7,18,0.00
2014-9-21,80.0,60.0,41.0,48.0,43.7,37.0,89,59,32,0.00,40.00,9,4,14,0.00
2014-9-22,82.0,67.3,48.0,52.0,46.9,42.0,86,53,30,0.00,40.00,10,5,16,0.00
2014-9-23,82.0,66.6,54.0,52.0,48.2,41.0,83,54,28,0.00,40.00,15,7,34,0.00
2014-9-24,92.0,73.5,55.0,53.0,45.8,38.0,75,44,17,0.00,40.00,11,6,21,0.00
2014-9-25,93.0,73.9,51.0,47.0,39.5,27.0,67,34,12,0.00,40.00,9,4,24,0.00
2014-9-26,73.0,65.1,60.0,50.0,41.2,30.0,66,43,23,0.00,40.00,10,6,21,0.01
2014-9-27,61.0,52.6,49.0,49.0,43.2,34.0,97,73,36,0.00,40.00,15,6,24,0.39
2014-9-28,51.0,49.2,48.0,47.0,45.8,45.0,93,88,85,0.00,40.00,11,7,19,0.11
2014-9-29,68.0,55.6,45.0,51.0,45.1,43.0,97,71,45,0.00,40.00,15,6,24,0.01
2014-9-30,61.0,55.6,46.0,48.0,41.6,35.0,82,60,43,0.00,40.00,15,7,24,0.03
2014-10-1,58.0,49.8,42.0,43.0,34.9,26.0,93,61,32,0.00,40.00,17,8,29,0.01
2014-10-2,51.0,40.1,32.0,34.0,31.1,27.0,95,73,43,0.00,40.00,12,5,25,0.24
2014-10-3,64.0,45.7,30.0,35.0,28.1,23.0,92,56,24,0.00,40.00,8,6,17,0.02
2014-10-4,75.0,61.7,50.0,40.0,32.6,23.0,66,34,27,0.00,40.00,14,7,22,0.01
2014-10-5,76.0,59.5,39.0,47.0,39.3,32.0,91,52,23,0.00,40.00,8,4,15,0.00
2014-10-6,78.0,63.8,48.0,47.0,41.9,34.0,72,46,30,0.00,40.00,15,8,26,0.00
2014-10-7,76.0,60.8,42.0,50.0,42.8,34.0,87,54,31,0.00,40.00,12,6,21,0.00
2014-10-8,77.0,57.8,44.0,53.0,42.5,36.0,93,62,25,0.00,40.00,11,4,20,0.00
2014-10-9,60.0,50.5,41.0,44.0,41.6,39.0,91,73,54,0.00,40.00,10,5,13,0.00
2014-10-10,73.0,56.5,37.0,47.0,39.3,33.0,97,59,28,0.00,40.00,10,6,19,0.00
2014-10-11,68.0,57.7,50.0,41.0,35.4,30.0,72,45,31,0.00,40.00,16,9,38,0.02
2014-10-12,60.0,50.3,41.0,40.0,34.6,28.0,79,57,35,0.00,40.00,13,7,23,0.02
2014-10-13,64.0,53.8,40.0,33.0,31.6,30.0,71,45,30,0.00,40.00,17,8,25,0.00
2014-10-14,78.0,63.5,51.0,36.0,32.6,30.0,56,33,19,0.00,40.00,12,8,23,0.00
2014-10-15,77.0,53.9,40.0,44.0,33.7,27.0,73,50,21,0.00,40.00,25,6,41,0.00
2014-10-16,62.0,51.8,37.0,33.0,29.3,25.0,64,43,28,0.00,40.00,13,7,22,0.00
2014-10-17,64.0,45.6,27.0,34.0,27.3,23.0,89,54,24,0.00,40.00,9,5,15,0.00
2014-10-18,70.0,56.0,44.0,36.0,31.6,23.0,54,40,28,0.00,40.00,14,8,28,0.00
2014-10-19,75.0,58.1,45.0,41.0,36.0,33.0,67,47,22,0.00,40.00,11,6,20,0.00
2014-10-20,80.0,57.9,44.0,36.0,32.1,27.0,69,43,18,0.00,40.00,9,5,16,0.00
2014-10-21,62.0,48.6,42.0,45.0,38.6,31.0,90,69,49,0.00,40.00,13,5,21,0.36
2014-10-22,61.0,52.2,43.0,35.0,32.6,31.0,67,49,32,0.00,40.00,13,8,26,0.02
2014-10-23,63.0,57.8,52.0,40.0,34.3,30.0,58,41,35,0.00,40.00,15,8,30,0.00
2014-10-24,59.0,52.5,45.0,44.0,35.2,31.0,86,53,39,0.00,40.00,12,7,23,0.00
2014-10-25,60.0,46.6,32.0,44.0,38.9,31.0,97,77,51,0.00,40.00,7,2,14,0.00
2014-10-26,60.0,51.8,44.0,42.0,27.4,22.0,57,39,29,0.00,40.00,20,13,35,0.00
2014-10-27,46.0,40.2,32.0,35.0,29.6,25.0,87,67,46,0.00,40.00,10,6,22,0.01
2014-10-28,56.0,43.6,28.0,28.0,23.1,19.0,84,47,26,0.00,40.00,9,6,20,0.01
2014-10-29,59.0,52.8,46.0,37.0,33.1,26.0,62,47,36,0.00,40.00,20,10,31,0.00
2014-10-30,61.0,43.7,29.0,38.0,33.1,27.0,94,69,42,0.00,40.00,5,2,10,0.00
2014-10-31,69.0,51.5,40.0,37.0,32.7,29.0,79,51,25,0.00,40.00,13,6,19,0.00
2014-11-1,59.0,41.9,34.0,38.0,32.8,28.0,94,72,41,0.00,40.00,12,5,17,0.33
2014-11-2,45.0,37.8,33.0,37.0,30.6,23.0,96,78,54,0.00,40.00,14,6,22,0.39
2014-11-3,50.0,41.5,29.0,33.0,28.1,22.0,80,60,44,0.00,40.00,13,7,24,0.03
2014-11-4,54.0,50.1,46.0,36.0,32.7,30.0,56,51,44,0.00,40.00,17,10,29,0.00
2014-11-5,56.0,51.4,46.0,37.0,34.2,30.0,70,53,40,0.00,40.00,18,8,29,0.00
2014-11-6,66.0,58.8,54.0,39.0,34.4,32.0,55,41,30,0.00,40.00,21,9,35,0.00
2014-11-7,58.0,50.9,39.0,39.0,31.4,28.0,70,48,36,0.00,40.00,21,9,41,0.00
2014-11-8,60.0,51.9,39.0,30.0,23.3,15.0,70,35,18,0.00,40.00,19,8,29,0.00
2014-11-9,58.0,42.6,13.0,37.0,23.7,6.0,86,52,26,0.00,40.00,18,11,28,0.02
2014-11-10,19.0,12.8,4.0,14.0,5.9,-3.0,81,74,67,0.00,40.00,10,5,24,0.02
2014-11-11,9.0,4.5,0.0,0.0,-4.1,-10.0,77,67,55,0.00,40.00,6,3,16,0.00
2014-11-12,16.0,1.5,-10.0,0.0,-7.7,-17.0,75,64,43,0.00,40.00,9,4,12,0.00
2014-11-13,15.0,-3.2,-15.0,1.0,-11.4,-22.0,78,67,51,0.00,40.00,11,4,14,0.00
2014-11-14,15.0,1.7,-11.0,1.0,-7.8,-19.0,74,64,53,0.00,40.00,6,3,9,0.00
2014-11-15,22.0,11.3,3.0,2.0,-1.0,-5.0,74,57,38,0.00,40.00,7,4,12,0.00
2014-11-16,29.0,21.5,14.0,13.0,7.0,0.0,73,53,47,0.00,40.00,8,6,12,0.00
2014-11-17,38.0,24.3,10.0,13.0,7.8,3.0,72,51,33,0.00,40.00,9,6,14,0.05
2014-11-18,40.0,33.4,19.0,20.0,13.0,8.0,80,44,33,0.00,40.00,8,5,16,0.05
2014-11-19,45.0,25.6,9.0,22.0,13.9,5.0,88,65,34,0.00,40.00,9,5,13,0.00
2014-11-20,50.0,42.2,33.0,28.0,21.2,16.0,56,43,30,0.00,40.00,12,9,24,0.00
2014-11-21,48.0,45.0,42.0,27.0,24.9,22.0,51,45,40,0.00,40.00,12,9,26,0.00
2014-11-22,48.0,43.8,36.0,34.0,23.0,15.0,66,43,31,0.00,40.00,24,13,41,0.00
2014-11-23,43.0,35.8,26.0,24.0,19.8,16.0,78,53,35,0.00,40.00,14,8,27,0.00
2014-11-24,42.0,36.3,27.0,24.0,19.7,16.0,77,52,36,0.00,40.00,17,8,27,0.00
2014-11-25,42.0,37.0,31.0,34.0,25.6,17.0,86,65,39,0.00,40.00,14,7,27,0.00
2014-11-26,42.0,31.7,28.0,33.0,29.4,26.0,98,92,71,0.00,40.00,9,4,13,0.00
2014-11-27,60.0,52.4,39.0,35.0,33.0,29.0,76,49,36,0.00,40.00,19,12,31,0.00
2014-11-28,55.0,46.9,4.0,35.0,29.0,-3.0,78,51,37,0.00,40.00,13,9,33,0.00
2014-11-29,4.0,-3.5,-7.0,-3.0,-12.7,-18.0,72,63,52,0.00,40.00,10,6,18,0.00
2014-11-30,14.0,-3.2,-13.0,1.0,-11.3,-20.0,76,68,56,0.00,40.00,10,5,14,0.00
2014-12-1,33.0,19.1,1.0,18.0,6.4,-5.0,75,58,43,0.00,40.00,13,8,22,0.00
2014-12-2,37.0,29.8,11.0,14.0,10.8,5.0,76,46,33,0.00,40.00,16,7,25,0.00
2014-12-3,40.0,26.2,10.0,19.0,12.9,5.0,80,58,38,0.00,40.00,13,7,19,0.00
2014-12-4,45.0,38.4,29.0,34.0,28.0,18.0,78,66,58,0.00,40.00,11,7,16,0.00
2014-12-5,42.0,30.7,24.0,33.0,25.7,22.0,95,82,69,0.00,40.00,15,6,22,0.00
2014-12-6,51.0,40.9,28.0,36.0,30.0,25.0,96,66,47,0.00,40.00,14,7,27,0.00
2014-12-7,51.0,44.0,36.0,32.0,26.5,21.0,66,51,36,0.00,40.00,18,8,29,0.00
2014-12-8,49.0,40.6,32.0,28.0,25.1,20.0,66,54,42,0.00,40.00,11,8,15,0.00
2014-12-9,56.0,46.9,39.0,32.0,28.7,26.0,60,49,37,0.00,40.00,13,9,19,0.00
2014-12-10,56.0,47.7,41.0,35.0,29.1,27.0,69,46,35,0.00,40.00,13,7,19,0.00
2014-12-11,59.0,54.6,47.0,27.0,24.0,22.0,38,31,25,0.00,40.00,13,8,24,0.00
2014-12-12,62.0,56.5,43.0,30.0,27.1,22.0,51,33,23,0.00,40.00,10,7,25,0.00
2014-12-13,53.0,38.3,33.0,35.0,29.9,24.0,98,75,41,0.00,40.00,8,4,19,0.00
2014-12-14,35.0,31.3,25.0,29.0,25.2,20.0,89,78,70,0.00,40.00,7,4,21,0.00
2014-12-15,35.0,25.0,16.0,23.0,19.0,13.0,92,78,59,0.00,40.00,7,4,12,0.00
2014-12-16,32.0,20.6,13.0,27.0,17.5,11.0,91,87,79,0.00,40.00,8,3,11,0.00
2014-12-17,39.0,32.6,26.0,30.0,26.4,22.0,89,78,65,0.00,40.00,10,7,14,0.00
2014-12-18,41.0,35.3,28.0,26.0,24.0,22.0,80,63,52,0.00,40.00,11,8,17,0.00
2014-12-19,46.0,39.5,33.0,31.0,26.6,24.0,69,60,48,0.00,40.00,12,8,21,0.00
2014-12-20,45.0,38.4,37.0,27.0,21.8,18.0,57,50,46,0.00,40.00,11,7,20,0.00
2014-12-21,50.0,43.3,30.0,38.0,27.1,19.0,76,54,30,0.00,40.00,16,10,28,0.00
2014-12-22,41.0,33.6,28.0,29.0,23.6,19.0,85,68,41,0.00,40.00,9,4,17,0.00
2014-12-23,42.0,32.9,20.0,23.0,18.4,15.0,88,58,36,0.00,40.00,12,7,24,0.00
2014-12-24,45.0,37.4,29.0,32.0,29.1,21.0,99,74,43,0.00,40.00,14,6,20,0.00
2014-12-25,32.0,23.7,6.0,27.0,19.0,3.0,94,83,59,0.00,40.00,8,4,21,0.00
2014-12-26,29.0,18.1,6.0,19.0,13.1,3.0,92,81,63,0.00,40.00,7,4,10,0.00
2014-12-27,33.0,28.0,18.0,20.0,15.2,9.0,71,58,49,0.00,40.00,10,6,20,0.00
2014-12-28,31.0,20.5,10.0,26.0,14.5,4.0,95,77,64,0.00,40.00,9,5,19,0.00
2014-12-29,10.0,2.7,-7.0,4.0,-5.4,-15.0,76,68,57,0.00,40.00,9,5,16,0.00
2014-12-30,10.0,-2.8,-19.0,-7.0,-14.8,-26.0,70,57,41,0.00,40.00,9,4,13,0.00
2014-12-31,20.0,14.6,10.0,-1.0,-3.9,-7.0,48,43,35,0.00,40.00,13,9,21,0.00
2015-1-1,30.0,21.2,15.0,8.0,2.3,-2.0,53,44,35,0.00,40.00,12,9,19,0.00
2015-1-2,39.0,29.1,10.0,25.0,16.5,4.0,83,60,49,0.00,40.00,17,9,27,0.00